Weather History for K1V4 - October, 2010

Change the Weather History Date:

Saturday, October 2, 2010

  Actual Average Record
Temperature  
Mean Temperature 46 °F 53 °F  
Max Temperature 52 °F 64 °F 84 °F (1950)
Min Temperature 37 °F 42 °F 27 °F (1992)
Degree Days  
Heating Degree Days 20 12  
Month to date heating degree days 24  
Since 1 July heating degree days 258  
Cooling Degree Days 0 0  
Month to date cooling degree days 0  
Year to date cooling degree days 432  
Moisture  
Dew Point 39 °F    
Average Humidity 72    
Maximum Humidity 97    
Minimum Humidity 52    
Precipitation  
Precipitation 0.00 in 0.12 in 1.35 in (1945)
Month to date precipitation 0.25  
Year to date precipitation 29.40  
Sea Level Pressure  
Sea Level Pressure 29.95 in    
Wind  
Wind Speed - (North)    
Max Wind Speed -    
Max Gust Speed -    
T = Trace of Precipitation, MM = Missing Value Source: NWS Daily Summary

Daily Weather History Graph

Daily Weather History Graph

Search for Another Location

Airport or City:

Trip Planner

Search our weather history database for the weather conditions in past years. The results will help you decide how hot, cold, wet, or windy it might be!

Date:

Astronomy

Oct. 02, 2010 Rise Set
Actual Time 6:47 AM EDT 6:27 PM EDT
Civil Twilight 6:18 AM EDT 6:55 PM EDT
Nautical Twilight 5:44 AM EDT 7:29 PM EDT
Astronomical Twilight 5:10 AM EDT 8:03 PM EDT
Moon 12:13 AM EDT (10/2) 3:25 PM EDT (10/2)
Length of Visible Light 12h 37m
Length of Day
11h 40m
Waning Crescent, 33% of the Moon is Illuminated
Oct 2
Waning Crescent
Oct 7
New
Oct 14
First Quarter
Oct 22
Full
Oct 30
Last Quarter

Hourly Weather History & Observations

Time (EDT) Temp. Dew Point Humidity Pressure Visibility Wind Dir Wind Speed Gust Speed Precip Events Conditions
12:54 AM 52.0 °F 46.0 °F 80% 29.73 in - North - - N/A   Unknown
1:54 AM 52.0 °F 46.0 °F 80% 29.74 in - North - - N/A   Unknown
2:54 AM 50.0 °F 43.0 °F 77% 29.77 in - North - - N/A   Unknown
3:54 AM 50.0 °F 41.0 °F 71% 29.80 in - North - - N/A   Unknown
4:54 AM 48.9 °F 39.9 °F 71% 29.83 in - North - - N/A   Unknown
5:54 AM 48.0 °F 41.0 °F 77% 29.84 in - North - - N/A   Unknown
6:54 AM 46.9 °F 41.0 °F 80% 29.86 in - North - - N/A   Unknown
7:54 AM 46.9 °F 39.9 °F 77% 29.88 in - North - - N/A   Unknown
8:54 AM 48.0 °F 39.9 °F 74% 29.90 in - North - - N/A   Unknown
9:54 AM 48.0 °F 39.0 °F 71% 29.92 in - North - - N/A   Unknown
10:54 AM 48.9 °F 37.9 °F 66% 29.94 in - North - - N/A   Unknown
11:54 AM 50.0 °F 37.0 °F 61% 29.95 in - North - - N/A   Unknown
12:54 PM 50.0 °F 36.0 °F 59% 29.96 in - North - - N/A   Unknown
1:54 PM 51.1 °F 36.0 °F 56% 29.96 in - North - - N/A   Unknown
2:54 PM 52.0 °F 36.0 °F 54% 29.97 in - North - - N/A   Unknown
3:54 PM 52.0 °F 36.0 °F 54% 29.99 in - North - - N/A   Unknown
4:54 PM 51.1 °F 34.0 °F 52% 30.01 in - North - - N/A   Unknown
5:54 PM 50.0 °F 36.0 °F 59% 30.04 in - North - - N/A   Unknown
6:54 PM 48.9 °F 37.9 °F 66% 30.06 in - North - - N/A   Unknown
7:54 PM 48.0 °F 37.9 °F 68% 30.08 in - North - - N/A   Unknown
8:54 PM 44.1 °F 39.0 °F 82% 30.10 in - North - - N/A   Unknown
9:54 PM 41.0 °F 39.0 °F 93% 30.12 in - North - - N/A   Unknown
10:54 PM 39.9 °F 37.9 °F 93% 30.12 in - North - - N/A   Unknown
11:54 PM 37.9 °F 37.0 °F 97% 30.14 in - North - - N/A   Unknown